Regional Weather Roundup
Issued by NWS

Home | Current Version | Previous Version | Text Only | Print | Product List | Glossary Off
Versions: 1 2 3 4 5 6 7 8 9 10 11 12 13 14 15 16 17 18 19 20 21 22 23 24 25 26 27 28 29 30 31 32 33 34 35 36 37 38 39 40 41 42 43 44 45 46 47 48 49 50

000
ASUS43 KMKX 231200
RWRWI

WISCONSIN REGIONAL WEATHER ROUNDUP
NATIONAL WEATHER SERVICE MILWAUKEE/SULLIVAN WI
700 AM CDT THU MAR 23 2017

NOTE: "FAIR" INDICATES FEW OR NO CLOUDS BELOW 12,000 FEET WITH NO
SIGNIFICANT WEATHER AND/OR OBSTRUCTIONS TO VISIBILITY.

WIZ001-002-006>008-014>016-023>028-231300-
NORTHWEST WISCONSIN

CITY           SKY/WX    TMP DP  RH WIND       PRES   REMARKS
SUPERIOR ARPT  CLOUDY    30  27  88 CALM      30.20F
ASHLAND        LGT SNOW  29  27  92 SE6       30.23F VSB 3/4 WCI  23
6HR MIN TEMP:  26; 6HR MAX TEMP:  32; 6HR PCP:  0.06;

HAYWARD        MOCLDY    31  24  75 S9        30.21F WCI  23
6HR MIN TEMP:  30; 6HR MAX TEMP:  34; 6HR PCP:  0.01;

SIREN          CLOUDY    32  24  73 S12       30.18F WCI  23
CUMBERLAND     CLOUDY    30  23  74 SE12      30.19F WCI  21
RICE LAKE      CLOUDY    31  25  77 SE12      30.23F WCI  22
CHETEK         CLOUDY    31  23  73 SE13      30.23F WCI  21
LADYSMITH      CLOUDY    29  27  90 SE9       30.27F WCI  21
EAU CLAIRE     NOT AVBL
MENOMONIE      CLOUDY    34  22  60 SE13      30.23S WCI  25
6HR MIN TEMP:  33; 6HR MAX TEMP:  35;

NEW RICHMOND   CLOUDY    34  19  53 SE12      30.18F WCI  26
OSCEOLA        CLOUDY    35  20  55 SE10      30.20F WCI  27
$$

WIZ003>005-009-010-017-018-231300-
NORTH CENTRAL WISCONSIN

CITY           SKY/WX    TMP DP  RH WIND       PRES   REMARKS
MANITOWISH WTR FLURRIES  27  20  77 S10       30.27S WCI  17
ARBOR VITAE    LGT SNOW  29  22  78 S10G17    30.28R WCI  19
WOODRUFF       LGT SNOW  29  22  78 S10G17    30.28R WCI  19
RHINELANDER    CLOUDY    28  18  66 S8        30.30F WCI  20
6HR MIN TEMP:  26; 6HR MAX TEMP:  28;

EAGLE RIVER    CLOUDY    26  18  70 S7        30.28F WCI  18
LAND O LAKES   CLOUDY    27  19  72 S7        30.29F WCI  19
PHILLIPS       LGT SNOW  26  25  94 SE9       30.26F WCI  17
6HR MIN TEMP:  26; 6HR MAX TEMP:  29;

TOMAHAWK       LGT SNOW  26  20  77 S3        30.32R
MEDFORD        CLOUDY    27  20  77 SE8       30.27F WCI  18
MERRILL        FLURRIES  28  19  69 S5        30.33S WCI  22
$$

WIZ029-030-035-036-043>047-231300-
CENTRAL WISCONSIN

CITY           SKY/WX    TMP DP  RH WIND       PRES   REMARKS
WAUSAU         CLOUDY    27  17  66 SE7       30.31F WCI  19
6HR MIN TEMP:  26; 6HR MAX TEMP:  27; 6HR PCP: TRACE;

MOSINEE        CLOUDY    27  19  74 SE7       30.34S WCI  19
MARSHFIELD     CLOUDY    28  19  69 SE12      30.29F WCI  18
6HR MIN TEMP:  28; 6HR MAX TEMP:  29; 6HR PCP: TRACE;

STEVENS POINT  CLOUDY    25  17  72 SE7       30.35S WCI  18
WAUPACA        CLOUDY    29  21  71 SE7       30.38F WCI  22
WAUTOMA        CLOUDY    28  22  78 SE8       30.38  WCI  20
6HR MIN TEMP:  24; 6HR MAX TEMP:  28;

WISC RAPIDS    CLOUDY    28  19  69 SE8       30.35S WCI  20
6HR MIN TEMP:  27; 6HR MAX TEMP:  29;

CAMP DOUGLAS   NOT AVBL
$$

WIZ011>013-019>022-031-037>040-048>050-231300-
NORTHEAST WISCONSIN

CITY           SKY/WX    TMP DP  RH WIND       PRES   REMARKS
ANTIGO         CLOUDY    24  18  77 S10       30.32F WCI  14
SHAWANO        CLOUDY    29  21  73 CALM      30.39F
6HR MIN TEMP:  24; 6HR MAX TEMP:  29;

OCONTO         CLOUDY    27  21  79 CALM      30.42S
STURGEON BAY   CLOUDY    30  25  81 S7        30.42S WCI  23
6HR MIN TEMP:  24; 6HR MAX TEMP:  30;

GREEN BAY      CLOUDY    29  24  82 S3        30.41F
6HR MIN TEMP:  24; 6HR MAX TEMP:  29;

MANITOWOC      NOT AVBL
APPLETON       CLOUDY    28  19  69 VRB5      30.38F WCI  23
CLINTONVILLE   CLOUDY    28  21  74 S7        30.39S WCI  21
OSHKOSH        CLOUDY    30  23  75 SE7       30.38F WCI  23
6HR MIN TEMP:  22; 6HR MAX TEMP:  30;

$$

WIZ032>034-041-042-053>061-231300-
SOUTHWEST WISCONSIN

CITY           SKY/WX    TMP DP  RH WIND       PRES   REMARKS
LA CROSSE      CLOUDY    35  21  56 SE13      30.27F WCI  26
6HR MIN TEMP:  35; 6HR MAX TEMP:  38; 6HR PCP:  0.02;

SPARTA         CLOUDY    33  20  59 SE10      30.31F WCI  25
VIROQUA        CLOUDY    31  20  64 SE15      30.26F WCI  20
6HR MIN TEMP:  31; 6HR MAX TEMP:  33;

BOSCOBEL       CLOUDY    33  20  58 E7        30.32F WCI  27
6HR MIN TEMP:  33; 6HR MAX TEMP:  36;

PRAIRIE DU CHI CLOUDY    34  19  55 SE7       30.30S WCI  28
PLATTEVILLE    CLOUDY    32  23  69 SE14      30.31F WCI  22
$$

WIZ056-057-062-063-064-067-068-231300-
SOUTH CENTRAL WISCONSIN

CITY           SKY/WX    TMP DP  RH WIND       PRES   REMARKS
REEDSBURG      CLOUDY    31  20  64 SE3       30.34S
6HR MIN TEMP:  30; 6HR MAX TEMP:  31;

BARABOO/DELLS  CLOUDY    30  20  67 SE6       30.35R WCI  24
LONE ROCK      NOT AVBL
MINERAL POINT  CLOUDY    32  23  69 SE10      30.31F WCI  24
MADISON        CLOUDY    31  21  66 SE8       30.37S WCI  23
6HR MIN TEMP:  26; 6HR MAX TEMP:  31;

MIDDLETON      CLOUDY    32  23  68 SE8       30.36F WCI  25
WATERTOWN      CLOUDY    31  24  75 SE8       30.38S WCI  23
MONROE         CLOUDY    32  23  69 SE9       30.33S WCI  24
JANESVILLE     CLOUDY    34  21  60 SE9       30.36F WCI  26
$$

WIZ051-052-058>065-066-070>072-231300-
SOUTHEAST WISCONSIN

CITY           SKY/WX    TMP DP  RH WIND       PRES   REMARKS
MILWAUKEE      CLOUDY    34  23  64 S7        30.42S WCI  28
6HR MIN TEMP:  26; 6HR MAX TEMP:  34;

WAUKESHA       CLOUDY    30  21  69 SE7       30.41R WCI  23
MILWAUKEE/TIMM CLOUDY    32  21  64 SE5       30.42F WCI  27
RACINE         CLOUDY    34  22  61 S10G21    30.43F WCI  26
6HR MIN TEMP:  23; 6HR MAX TEMP:  34;

KENOSHA        CLOUDY    33  23  66 SE10      30.41F WCI  25
6HR MIN TEMP:  20; 6HR MAX TEMP:  33;

FOND DU LAC    CLOUDY    31  23  72 SE8       30.39F WCI  23
6HR MIN TEMP:  25; 6HR MAX TEMP:  31; 6HR PCP: TRACE;

SHEBOYGAN      CLOUDY    28  25  88 CALM      30.41F
6HR MIN TEMP:  21; 6HR MAX TEMP:  28;

WEST BEND      CLOUDY    28  27  93 CALM      30.41R
JUNEAU         CLOUDY    30  24  77 SE7       30.39F WCI  23
$$

LSZ147-162-231300-
LAKE SUPERIOR

STATION/POSITION TIME  TEMP    WIND        PRES    WAVE
                       AIR SEA DIR/SP/G            HT/PER
                 (UTC) (F)     (DEG/KT/KT) (MB)    (FT/S)
DEVILS ISLAND    1100   31     170/  6/ 10 1025.8F
PORT WING        1130   30     150/  5/  9 1023.4F
SAXON HARBOR     1140   30     170/  4/  9 1024.7S
$$

LMZ867-665-643>646-231300-
LAKE MICHIGAN

STATION/POSITION TIME  TEMP    WIND        PRES    WAVE
                       AIR SEA DIR/SP/G            HT/PER
                 (UTC) (F)     (DEG/KT/KT) (MB)    (FT/S)
CHAMBERS ISLAND  1140   28      CALM  /  3 1029.5F
NORTHPORT PIER   1140   31     160/  2/  8 1030.1S
SISTER BAY       1021   28        CALM       N/A
KEWAUNEE LAKESHO 1130   32     200/ 10/ 14 1029.9S
SHEBOYGAN LAKESH 1100   34     170/ 14/ 15 1031.1R
PORT WASHINGTON  1140   35     170/ 12/ 16 1030.8F
MILWAUKEE LAKESH 1130   35     170/ 10/ 12   N/A
KENOSHA   LAKESH 1100   34     170/ 19/ 20 1030.1
$$

TC  - TEMPERATURE IN CELSIUS
VSB - VISIBILITY IN STATUTE MILES
WCI - WIND CHILL INDEX
HX  - HEAT INDEX




USA.gov is the U.S. government's official web portal to all federal, state and local government web resources and services.